Location: Bothwell
(41.7170°N, 112.2589°W)
Time: 10:12:30
(UTC+00:00)

Vanguard 3 - Visible Passes

Search period start: 15 May 2026 00:00
Search period end: 25 May 2026 00:00
Orbit: 507 x 3205 km, 33.4° (Epoch: 14 May)

Date Brightness Start Highest point End Pass type
(mag) Time Alt. Az. Time Alt. Az. Time Alt. Az.
16 May 10.2 03:28:48 10° W 03:39:50 24° SW 03:47:40 10° S visible
17 May 10.5 04:23:51 10° WSW 04:27:58 12° SW 04:31:35 10° SW visible
19 May 10.7 03:48:27 10° WSW 03:54:45 14° SW 04:00:03 10° SSW visible
21 May 10.8 03:13:19 10° W 03:21:22 15° SW 03:28:03 10° SSW visible
